Regional Weather Roundup
Issued by NWS

Home | Current Version | Previous Version | Graphics & Text | Print | Product List | Glossary On
Versions: 1 2 3 4 5 6 7 8 9 10 11 12 13 14 15 16 17 18 19 20 21 22 23 24 25 26 27 28 29 30 31 32 33 34 35 36 37 38 39 40 41 42 43 44 45 46 47 48 49 50
000
ASUS43 KFSD 240210
RWRSD

WEATHER ROUNDUP FOR SOUTH DAKOTA
NATIONAL WEATHER SERVICE SIOUX FALLS SD
900 PM CDT SUN APR 23 2017

NOTE: "FAIR" INDICATES FEW OR NO CLOUDS BELOW 12,000 FEET WITH NO
SIGNIFICANT WEATHER AND/OR OBSTRUCTIONS TO VISIBILITY.


SDZ001>005-009-010-012>017-240300-
NORTHWEST AND NORTH CENTRAL SOUTH DAKOTA

CITY           SKY/WX    TMP DP  RH WIND       PRES   REMARKS
BUFFALO          N/A     46  39  76 E16       29.62F
FAITH            N/A     42  38  85 NE23G30   29.67F
MOBRIDGE       PTCLDY    41  32  70 N14G24    29.73R
$$

SDZ012>016-024>037-041>051-057-063-072>074-240300-
SOUTHWEST AND SOUTH CENTRAL SOUTH DAKOTA

CITY           SKY/WX    TMP DP  RH WIND       PRES   REMARKS
RAPID CTY ARPT CLOUDY    57  40  52 NE10      29.63F
PIERRE         CLOUDY    59  42  53 N9        29.60S
CUSTER         CLOUDY    52  37  56 E12       29.69F
ELLSWORTH AFB  CLOUDY    60  41  49 NE9       29.63F
PHILIP         CLOUDY    63  44  50 NE20      29.60S
PINE RIDGE     CLOUDY    67  39  35 S20G25    29.62F
SPEARFISH      FAIR      54  41  62 E10       29.66S
WINNER         FAIR      66  36  32 S15       29.66F
$$

SDZ004>011-016>023-039-040-240300-
NORTHEAST SOUTH DAKOTA

CITY           SKY/WX    TMP DP  RH WIND       PRES   REMARKS
ABERDEEN       CLOUDY    52  40  63 NE23G30   29.71F
WATERTOWN      PTCLDY    59  32  36 SE7       29.74F
BROOKINGS      CLEAR     62  30  29 S13       29.77S
SISSETON         N/A     53  42  66 NE10      29.79R
$$

SDZ017-020-022-023-036>040-048>070-240300-
SOUTHEAST SOUTH DAKOTA

CITY           SKY/WX    TMP DP  RH WIND       PRES   REMARKS
SIOUX FALLS    CLOUDY    64  32  30 S12       29.79S
HURON          MOCLDY    64  32  30 S12       29.68F
CHAMBERLAIN    CLOUDY    61  37  40 SE9       29.66S
MITCHELL       PTCLDY    67  29  24 S14       29.72S
YANKTON        CLOUDY    64  28  25 S15       29.78S
$$

ABBREVIATIONS USED IN REMARKS
   TC - TEMPERATURE IN CELSIUS
  WCI - WIND CHILL INDEX
   HX - HEAT INDEX
  VSB - VISIBILITY





USA.gov is the U.S. government's official web portal to all federal, state and local government web resources and services.